カタログに戻る

BREEZE-M R/B

運用中HEO
NORAD 28660·ROCKET BODY·🇷🇺 Russia

打ち上げ May 22, 2005 から Baikonur Cosmodrome

Loading…

次のパス (今後24時間)

TLE

最新Source: Space-Track

元期: Sep 14, 2026, 14:17 UTC

1 28660U 05019B   26257.59564110 -.00000129  00000-0  00000+0 0  9992
2 28660   9.8012 117.1368 3290521  45.2938 123.8952  1.54369560119925

AllMySatでBREEZE-M R/Bをリアルタイム追跡

Download on the App Store